Theta_e
299 299 300 302 302 301 301 301 302 303 303 299 298 300 295 296 294 308 308 308 305 296 288 292 290 289 291 295 293 294 292 291 293 292 293 291 291 290 291 292 289 292 289 290 289 291 289 293 293 296 297 297 299 302 302 303 302 298 294 298 296 310 283 284 283 285 290 295 298 301 302 300 297 297 298 293 286 285 284 281 281 282 283 282 278 277 282
299 299 301 302 301 301 301 301 302 303 303 300 300 295 295 299 299 302 311 310 304 291 282 283 283 288 292 292 292 295 293 292 291 291 292 292 290 289 292 292 293 291 291 290 288 292 284 294 293 292 297 294 302 302 303 304 300 299 295 293 298 286 286 282 278 280 281 285 290 293 298 298 294 293 294 296 294 291 288 288 284 283 283 282 281 276 283
299 300 301 302 301 301 301 301 302 302 303 303 299 293 296 297 302 302 304 307 302 289 292 289 283 288 290 292 291 293 294 294 293 293 291 294 292 293 291 293 293 292 292 290 291 294 290 288 295 295 296 296 302 302 303 306 303 307 310 311 302 288 287 282 278 276 275 276 278 283 285 289 292 297 296 297 295 291 288 284 280 280 283 285 281 283 290
299 300 301 301 300 300 300 301 302 303 303 304 300 296 294 296 286 295 299 300 299 296 299 296 295 292 292 287 291 294 291 295 293 292 292 294 294 292 293 292 292 290 290 288 289 292 297 292 290 292 292 296 299 300 302 305 304 309 312 309 298 289 291 287 280 279 278 282 289 292 291 291 289 293 294 295 295 294 288 284 281 281 284 285 287 291 294
299 300 301 301 300 300 300 301 302 303 303 304 300 297 295 298 291 289 287 295 294 293 296 296 297 288 292 284 290 289 292 294 294 294 289 292 292 292 292 291 289 288 288 287 287 291 293 295 295 294 294 297 298 301 302 303 307 310 306 308 293 286 287 292 290 290 290 292 292 296 296 292 292 291 291 294 294 291 285 280 284 287 286 282 290 297 295
300 301 301 300 300 300 301 301 302 303 303 304 301 293 297 289 292 297 297 289 284 286 288 295 294 296 296 290 293 290 290 290 285 292 293 293 293 288 290 291 291 290 290 288 283 288 289 290 286 295 295 295 295 294 299 298 304 306 302 303 296 289 285 291 291 292 294 295 295 296 295 294 292 292 291 291 293 293 290 289 291 286 279 283 292 297 294
300 301 300 300 299 300 300 301 302 303 303 304 299 293 299 298 296 297 301 289 292 291 292 297 295 293 295 287 291 288 290 289 293 290 289 291 291 290 281 287 290 292 292 286 284 287 281 284 291 290 291 292 288 287 292 298 301 301 299 299 297 290 285 290 290 290 292 293 294 295 293 292 292 291 291 291 292 291 292 291 290 289 286 293 294 294 292
301 300 300 299 300 300 301 301 302 303 303 303 298 295 295 295 292 289 298 297 293 293 293 294 294 289 295 287 288 292 291 289 292 293 290 284 288 293 288 290 292 292 293 290 287 289 289 289 283 292 291 289 289 289 290 290 296 300 296 300 299 291 285 293 290 285 287 291 293 293 291 290 288 291 292 291 291 293 292 291 292 293 292 293 293 291 289
301 300 299 300 300 300 301 301 302 303 303 298 296 297 300 301 305 303 294 289 292 293 294 291 290 286 286 285 289 292 293 291 293 292 294 290 289 292 289 291 291 293 292 291 290 293 293 291 292 294 291 287 293 288 290 295 293 297 294 296 296 292 286 293 287 284 283 290 290 289 290 289 288 288 289 290 290 288 291 288 292 291 290 292 291 288 287
300 299 299 299 300 300 301 301 302 302 304 298 298 296 307 306 309 306 298 289 296 293 294 293 290 285 286 288 290 291 291 295 292 283 292 295 294 294 292 292 291 289 290 289 291 295 294 294 293 292 293 295 297 296 297 296 293 292 294 296 291 291 288 285 284 284 283 289 292 289 288 286 284 285 288 290 293 292 293 293 294 295 295 290 287 288 291
299 299 299 299 300 300 301 301 302 303 302 297 297 298 301 299 298 300 301 291 285 290 290 288 288 290 292 296 292 293 292 293 292 285 286 295 295 296 294 292 289 285 288 292 296 296 296 296 295 293 293 292 291 292 296 297 296 297 294 290 291 293 290 285 287 283 284 290 291 288 282 278 280 290 294 293 291 291 288 289 291 293 293 290 292 291 291
299 299 299 299 300 300 301 301 302 303 303 301 300 297 301 302 300 300 291 287 286 289 288 284 288 292 292 294 293 291 290 291 292 294 290 293 295 296 294 291 286 283 293 297 295 294 295 295 294 292 293 292 292 293 296 293 293 295 294 290 289 288 287 286 286 284 284 286 286 282 276 278 290 294 295 296 295 294 292 292 293 292 292 292 290 290 290
299 299 299 300 300 300 301 301 302 302 304 303 301 296 302 303 298 297 296 292 285 289 287 290 295 296 295 293 291 292 292 293 294 293 294 292 293 294 295 292 289 292 296 294 293 292 289 289 287 289 290 291 290 291 294 294 294 295 295 295 289 285 285 285 284 283 284 284 282 278 278 287 293 293 294 296 296 294 292 289 292 293 292 291 289 289 290
298 298 299 299 300 301 301 302 302 303 303 303 300 300 301 300 298 298 294 288 288 291 293 287 290 291 292 291 289 291 291 291 291 292 291 295 292 293 295 295 295 294 293 293 290 286 282 282 280 281 282 286 284 284 290 294 293 293 294 295 295 291 288 284 285 284 282 282 283 282 287 287 289 288 289 290 288 289 288 284 287 293 293 292 289 290 290
298 299 299 300 300 301 301 302 302 303 303 304 302 301 300 300 300 298 301 296 288 287 287 283 287 289 291 291 289 285 285 287 287 288 293 296 294 296 295 296 295 294 292 289 285 285 281 280 278 279 279 279 275 278 287 286 293 294 293 293 294 291 285 284 284 282 284 282 280 282 281 278 283 289 292 294 293 294 295 290 286 294 294 293 291 289 289
299 299 299 300 300 301 301 302 302 303 303 304 302 301 300 302 301 300 298 296 290 282 286 292 294 292 288 287 290 288 285 282 286 286 287 289 293 294 296 295 295 293 293 289 286 283 280 279 278 276 274 276 281 281 280 285 286 293 292 291 291 291 290 286 283 282 282 282 280 280 279 280 285 287 290 292 293 294 294 288 284 291 294 293 292 290 290
298 299 299 300 300 301 302 302 302 303 304 304 301 300 299 302 299 298 298 297 293 285 291 295 294 291 287 285 287 286 285 284 282 281 283 282 289 293 294 294 292 293 290 285 284 282 281 279 278 272 278 285 279 278 284 280 276 281 287 288 287 286 282 282 282 279 279 280 280 277 280 280 285 287 289 291 293 293 291 281 281 290 294 294 293 291 291
298 299 299 300 301 301 302 302 303 304 304 306 303 299 299 303 303 302 301 295 289 284 287 293 292 287 285 287 285 291 290 288 289 285 283 288 288 290 291 291 289 293 292 284 283 280 279 278 278 278 279 283 287 282 275 279 276 278 278 280 278 280 281 281 281 279 278 280 278 281 281 286 287 287 290 291 294 293 283 280 284 291 292 293 293 292 292
298 299 299 300 301 301 302 303 304 304 305 305 304 302 301 302 303 304 299 296 288 283 290 295 295 292 294 296 291 293 294 293 288 283 282 282 288 293 294 295 292 284 291 283 282 280 279 280 282 278 279 281 284 279 283 279 278 280 280 278 278 275 278 283 280 280 277 276 278 279 280 285 287 289 290 293 290 283 282 287 292 291 289 291 291 289 289
299 299 300 300 301 302 302 303 304 305 305 306 305 298 300 303 304 303 300 293 287 285 289 292 294 292 295 292 289 287 289 290 289 284 282 283 289 291 285 283 288 288 284 283 280 283 279 280 281 282 279 277 281 285 280 281 286 280 277 280 275 275 277 278 278 280 278 275 275 276 275 283 288 289 290 292 286 285 289 290 290 291 290 289 289 289 288
299 299 300 300 301 302 303 304 304 305 306 306 306 300 298 303 303 305 306 300 288 283 286 292 294 293 294 293 294 295 292 291 289 288 290 288 292 285 281 280 283 284 283 279 280 281 282 281 283 281 284 283 282 283 280 278 281 287 285 280 281 284 280 277 276 279 276 274 275 276 281 284 290 289 285 288 291 293 292 290 288 290 290 289 288 288 289
299 299 300 300 301 302 303 304 304 305 306 306 305 302 298 302 305 307 307 299 285 285 287 294 294 293 296 296 296 296 298 296 297 295 290 286 291 286 285 288 290 289 288 288 285 283 285 281 283 278 279 281 284 279 282 279 276 282 285 284 275 283 281 282 278 280 279 277 280 285 288 289 291 291 292 294 295 295 293 291 289 288 288 290 288 288 289
299 299 300 301 302 303 303 304 304 305 306 306 304 300 298 301 303 302 298 292 291 290 292 291 291 292 295 296 298 298 298 298 300 298 295 290 286 289 288 289 290 295 293 289 284 284 283 282 279 281 281 282 280 280 282 279 279 281 280 286 283 287 288 288 285 282 287 288 288 289 289 290 292 294 295 293 292 293 292 291 289 290 290 290 288 289 289
299 300 300 301 302 302 303 304 304 305 305 306 305 299 297 300 302 298 295 291 285 286 287 288 286 285 287 292 296 296 297 298 300 302 299 296 286 286 291 295 299 295 293 295 290 288 285 283 287 285 281 283 285 281 280 280 283 286 285 285 287 288 287 284 282 284 283 278 287 286 287 289 291 291 293 294 293 292 292 290 290 290 290 290 290 290 289
299 300 300 301 302 302 303 304 305 305 305 305 305 304 302 299 302 297 289 286 285 279 281 282 284 291 295 295 295 294 296 301 303 303 300 297 295 288 289 295 297 292 292 294 291 290 284 283 283 281 281 286 287 281 285 283 283 287 281 283 284 283 290 285 285 284 282 281 285 287 289 290 291 291 290 290 291 292 292 291 290 290 290 290 290 291 291
299 300 300 301 302 303 303 304 304 305 305 306 306 299 299 300 302 301 298 292 287 282 281 282 287 296 295 296 295 297 300 298 299 300 300 300 298 298 299 298 297 297 295 294 293 288 285 285 285 283 283 285 291 283 283 286 285 285 282 278 284 286 290 282 285 282 284 287 287 288 288 288 289 291 292 292 292 292 291 291 291 291 290 290 291 292 291
299 300 300 301 302 303 303 304 304 304 305 305 304 300 301 301 303 301 298 294 285 283 281 282 285 291 295 294 296 297 300 299 298 298 299 299 300 300 298 296 293 293 294 292 289 286 285 285 284 284 286 287 291 288 288 286 284 280 280 285 288 286 282 286 285 281 281 281 284 288 282 281 285 289 291 292 293 293 292 291 291 291 290 290 290 290 291
299 300 300 301 302 303 303 304 304 304 304 305 306 303 302 300 303 303 300 295 288 283 282 283 285 290 293 295 297 297 298 298 296 296 296 297 298 298 296 295 293 293 290 289 287 287 286 286 286 286 284 288 286 285 288 286 285 283 283 285 288 285 285 284 282 282 281 287 289 290 288 287 288 290 292 293 294 292 291 290 291 291 291 290 290 289 289
299 300 301 301 302 303 303 304 305 304 305 305 300 300 299 301 301 302 305 304 294 287 283 285 287 287 284 291 297 296 297 297 296 295 294 295 295 294 294 293 292 290 290 287 285 284 285 285 284 285 285 290 287 283 284 281 281 280 283 288 288 289 290 287 287 288 288 290 290 291 289 287 289 291 292 292 292 292 291 291 291 291 291 291 291 290 289
299 300 301 301 302 303 304 304 305 304 304 300 296 290 287 293 297 302 301 305 299 289 284 283 283 287 293 296 293 295 295 296 295 295 294 293 293 292 292 292 291 291 289 285 284 284 285 285 285 288 292 294 286 283 281 283 282 283 288 289 289 290 290 291 292 289 287 291 292 292 291 291 292 292 292 292 293 292 291 291 291 291 291 291 290 289 289
300 300 301 302 302 303 304 304 305 304 303 297 290 285 285 284 292 301 302 303 300 290 283 283 284 285 286 295 292 293 294 294 293 292 293 292 292 292 292 293 291 291 286 286 285 285 283 284 282 285 291 291 284 278 281 281 280 282 288 288 288 288 289 290 292 292 292 292 293 293 293 292 292 292 292 292 292 292 291 291 293 293 291 290 288 288 287
300 301 301 301 302 303 304 304 304 303 298 297 293 288 289 291 297 301 301 303 299 291 283 283 283 283 284 287 294 297 294 295 294 291 289 292 291 292 293 292 290 292 289 284 285 283 283 283 282 286 287 289 287 281 281 280 281 281 286 287 289 290 290 290 291 293 293 294 292 290 289 289 291 289 289 292 292 292 291 291 290 290 291 289 287 287 287
300 301 301 301 302 303 303 304 305 303 296 299 305 305 304 305 304 302 302 300 293 288 285 281 281 282 281 287 292 294 296 291 290 287 289 291 291 288 288 291 290 290 294 289 283 282 285 282 281 283 285 285 283 281 279 279 283 286 288 289 289 290 290 291 292 293 293 294 293 287 286 288 290 291 292 292 292 291 290 289 289 288 288 287 287 286 286
300 300 301 301 302 303 304 305 304 304 304 299 294 295 300 305 302 303 302 298 293 291 284 282 280 280 282 286 286 292 295 286 288 285 284 291 290 288 285 287 287 283 287 284 285 284 284 284 283 282 284 283 279 279 279 282 286 288 289 290 290 290 291 290 290 290 291 291 290 291 290 289 289 290 290 289 289 289 290 289 288 288 287 287 286 286 285
300 300 301 302 302 303 304 304 299 299 296 298 297 296 298 305 303 302 303 293 288 285 283 283 281 280 281 280 281 288 295 288 286 286 283 288 289 288 286 283 283 282 285 287 283 281 282 283 284 282 280 279 278 280 280 285 287 288 289 289 290 290 290 289 289 290 289 288 288 288 289 289 289 288 288 288 288 289 288 288 287 287 286 285 286 285 285
300 300 301 302 303 303 299 302 299 297 294 294 292 300 306 305 306 302 302 298 291 284 280 283 280 279 279 279 280 285 292 287 288 288 288 282 286 290 285 283 282 284 287 282 281 281 282 286 283 280 275 277 277 280 283 286 286 287 288 288 289 290 289 289 289 288 287 288 288 288 289 288 288 288 288 288 288 287 287 287 286 286 285 285 285 286 286
300 301 302 302 299 295 293 292 297 299 298 299 302 306 305 303 302 300 298 296 299 295 285 281 283 284 282 282 281 284 288 283 284 283 283 282 283 282 282 281 281 283 281 281 281 281 284 287 282 279 277 277 279 285 287 287 286 286 286 287 287 288 287 287 288 288 288 288 288 288 288 287 287 287 287 288 288 288 287 287 286 285 284 284 284 284 284
301 302 295 294 292 285 287 287 296 301 305 303 303 295 291 292 286 285 286 286 290 295 285 285 280 282 284 282 282 287 285 282 283 281 283 283 282 284 282 282 283 283 279 280 283 287 282 280 279 278 278 284 285 287 287 287 287 287 287 287 287 287 288 288 288 287 285 284 283 283 285 285 286 286 288 288 289 288 286 286 286 287 287 286 286 286 285
300 294 294 294 289 285 286 293 300 304 301 298 293 286 285 284 283 282 283 284 284 286 284 284 283 283 284 282 284 289 287 282 281 279 279 283 282 281 281 280 282 280 280 278 282 286 279 280 277 276 278 281 284 284 286 287 287 288 288 288 288 288 288 288 288 287 286 286 286 286 286 285 284 285 286 286 286 286 287 287 287 287 287 286 286 285 285
294 293 290 288 287 288 295 299 304 301 294 288 288 284 283 284 283 280 282 282 281 282 283 283 285 285 286 287 285 284 288 283 279 279 279 282 285 280 282 280 282 279 275 274 279 283 277 274 278 275 277 281 282 286 287 288 287 286 287 288 289 289 290 289 289 289 289 288 289 289 288 287 288 287 287 287 286 286 285 286 287 287 286 286 285 285 284
292 291 289 286 291 294 295 298 296 291 287 283 282 282 281 282 282 283 281 280 280 283 284 287 287 286 289 285 284 282 289 290 286 283 280 281 285 283 280 278 281 278 276 276 282 282 280 277 276 274 277 281 285 287 287 287 287 287 287 288 289 291 291 291 290 290 290 289 288 288 289 288 288 288 288 288 287 286 287 287 286 286 286 285 284 284 284
291 291 292 293 294 294 294 289 286 285 282 284 280 279 280 280 282 283 282 279 280 281 285 284 283 283 286 287 286 286 285 290 284 282 281 281 284 280 279 280 281 275 273 279 281 281 278 273 274 275 280 281 285 286 287 287 287 287 287 287 289 291 291 290 289 289 290 289 288 288 288 289 289 289 288 288 288 287 287 287 287 286 286 285 285 285 285
300 299 296 292 289 288 287 284 285 282 278 278 275 278 279 279 280 279 281 282 284 283 286 290 287 288 290 289 288 288 286 290 285 283 280 280 283 281 278 278 277 274 278 282 280 278 274 273 273 277 281 282 285 286 287 287 286 287 288 289 289 290 289 289 290 289 289 290 288 288 288 288 288 288 289 289 288 287 287 286 287 287 286 286 286 285 285
295 296 293 288 284 285 285 279 284 282 278 279 277 275 276 277 279 280 280 282 282 285 286 286 286 285 284 286 284 285 284 286 285 282 281 281 280 277 277 276 276 277 281 279 277 273 273 275 277 282 282 284 287 286 286 286 286 286 288 289 289 289 289 289 289 289 288 289 288 288 288 288 288 289 289 289 289 288 288 288 288 288 287 286 286 286 286
287 285 282 279 278 282 281 273 279 279 276 277 280 278 276 274 276 276 277 281 284 286 286 286 286 285 284 286 284 284 284 283 283 281 279 280 276 278 276 277 279 279 276 274 274 275 276 276 279 281 283 284 285 286 286 286 286 287 286 286 287 288 289 289 288 289 288 288 288 288 288 288 289 289 288 288 288 289 288 288 288 288 288 287 287 286 286
283 281 278 276 276 278 279 276 276 276 279 281 279 279 277 278 279 280 282 285 286 286 287 286 285 285 283 284 283 283 282 281 280 280 282 279 276 276 279 280 279 275 275 273 271 269 273 278 280 283 284 285 285 286 286 286 287 286 288 286 287 288 288 289 288 289 289 288 288 289 288 287 287 287 287 287 287 288 288 288 288 289 289 287 287 287 287
285 284 282 279 275 278 280 277 277 279 279 280 280 280 283 285 284 284 285 287 287 287 287 287 286 285 284 284 284 284 282 281 279 281 280 276 276 279 282 278 274 272 270 269 269 271 273 278 282 284 285 286 286 286 286 287 287 287 287 286 287 288 288 288 288 288 288 288 288 288 288 288 288 288 288 288 288 288 287 288 288 288 289 288 287 287 287
282 283 281 275 273 278 278 279 280 280 281 282 281 283 285 285 286 287 289 288 289 289 288 286 286 284 284 283 283 281 282 281 279 280 281 280 280 276 272 273 273 274 273 271 272 274 279 282 283 285 286 287 287 286 286 287 287 287 287 287 287 288 288 288 288 289 289 288 287 287 289 289 290 288 288 289 289 290 289 288 287 287 287 287 288 288 288
287 282 280 277 279 280 279 280 281 281 280 281 282 283 284 286 285 286 289 290 289 289 288 287 282 281 282 282 280 281 279 281 276 277 280 277 273 270 270 269 270 272 274 273 276 280 283 284 286 287 287 287 287 287 287 288 288 287 287 288 287 288 289 290 290 290 290 290 289 289 289 289 290 289 288 289 290 290 291 290 290 289 289 289 288 288 287
285 281 282 282 281 281 279 280 281 280 279 281 283 283 283 284 285 287 288 289 288 286 286 286 283 282 283 281 279 279 278 280 279 280 276 273 273 275 274 270 270 271 273 276 279 281 284 286 287 287 287 287 287 288 287 287 287 288 288 288 288 288 289 290 290 291 291 290 290 289 288 287 287 287 289 289 289 289 288 288 288 288 288 289 288 287 288
284 283 281 280 281 278 280 280 277 279 282 282 282 283 284 285 285 289 289 288 289 285 282 281 282 281 280 278 278 274 278 281 280 277 275 274 277 274 271 270 271 272 275 280 285 285 287 287 288 287 287 287 288 288 288 288 288 289 289 289 289 289 289 289 290 289 289 290 289 288 289 288 288 289 289 289 290 288 287 288 288 287 288 287 287 288 288
281 280 280 282 282 281 282 281 282 282 283 284 285 287 288 287 288 289 290 289 286 284 282 282 281 280 277 276 277 280 282 280 278 278 277 278 278 275 273 272 275 277 282 283 284 286 287 287 288 287 288 288 288 288 289 289 289 288 289 289 290 290 289 289 289 289 289 288 289 288 289 289 289 289 288 287 287 287 287 287 286 287 288 288 288 288 288
Wind_Speed
6 7 7 7 9 9 7 8 8 8 8 4 4 4 2 3 3 3 10 8 10 7 2 1 1 3 3 5 10 9 9 7 7 8 2 1 1 1 2 1 3 1 2 3 4 4 3 6 6 4 4 4 5 6 3 3 5 4 3 2 1 4 1 3 3 5 5 1 4 16 14 8 6 3 2 3 0 3 7 7 5 6 3 2 1 3 2
6 6 7 8 8 8 7 7 8 9 6 4 4 3 3 3 2 3 2 11 4 5 3 3 2 3 6 6 8 7 8 6 8 2 3 2 2 1 1 4 3 0 3 3 5 7 3 3 9 3 2 2 7 7 5 5 3 3 1 1 3 2 1 4 1 1 2 4 3 8 5 8 3 1 4 2 1 4 3 4 1 5 2 4 7 5 3
5 6 6 8 7 6 6 7 8 9 9 7 3 2 3 4 1 2 4 2 2 4 2 2 1 2 2 3 5 4 2 8 13 2 3 3 1 1 2 0 0 2 2 3 4 7 4 2 5 5 3 3 2 7 7 6 6 3 3 2 1 6 0 3 4 5 5 4 5 0 2 2 1 2 7 7 9 4 2 3 1 4 2 5 5 3 2
5 5 6 7 7 6 6 6 7 8 9 9 3 2 3 1 1 1 1 1 0 2 1 0 1 3 2 2 7 5 5 2 4 4 1 4 3 1 1 4 3 3 5 5 6 6 7 5 1 4 3 1 2 3 6 8 3 4 9 6 3 2 2 3 4 7 7 5 5 2 3 2 6 3 8 9 4 5 7 5 5 5 3 5 1 5 12
5 5 7 7 5 6 6 6 7 7 8 8 2 2 3 2 1 2 3 1 2 2 1 3 3 3 3 1 2 2 1 1 1 3 2 3 3 2 3 3 4 2 4 1 4 3 5 7 8 4 2 1 0 4 5 5 9 8 3 8 4 4 6 7 6 7 5 5 5 4 7 7 1 4 5 9 8 3 6 2 2 4 10 2 0 7 11
5 6 7 6 5 5 6 6 8 7 7 7 2 3 3 1 1 0 3 2 4 3 6 6 6 6 3 5 2 3 2 3 0 2 1 1 2 3 6 5 3 4 1 2 2 1 3 3 3 1 3 1 5 3 6 6 6 5 2 4 4 4 3 3 5 6 8 8 9 9 10 8 5 7 5 7 6 11 6 1 1 1 2 8 8 9 7
5 6 6 5 5 5 5 6 8 8 7 5 3 2 2 2 1 2 1 0 2 3 3 1 4 7 6 3 3 2 3 2 0 1 3 4 4 5 1 3 6 5 6 4 2 1 3 3 1 1 0 2 1 3 3 3 6 5 3 4 2 6 2 1 2 6 6 4 5 9 14 5 10 8 6 4 8 7 6 5 5 2 3 12 12 11 11
5 6 5 5 5 5 5 7 7 7 7 4 3 3 0 2 0 2 3 1 1 1 1 2 2 4 3 3 3 1 0 1 3 2 1 1 2 2 4 4 9 10 12 7 4 2 3 5 3 1 2 1 1 1 1 1 3 4 3 1 3 5 2 3 2 5 5 6 6 7 9 8 9 7 8 7 3 8 7 4 6 10 11 10 12 14 10
5 5 5 5 5 5 6 6 6 6 5 2 3 2 4 3 2 1 2 4 3 1 0 1 1 2 2 2 2 3 1 1 0 2 2 3 0 0 3 4 7 7 11 9 7 4 5 5 5 2 4 1 2 2 1 2 2 2 2 2 2 6 3 1 2 5 2 4 4 8 10 13 13 9 10 10 7 6 4 3 2 4 9 10 11 9 6
5 5 5 5 5 5 6 6 7 6 2 2 2 3 1 2 2 0 1 0 4 3 2 1 2 2 4 3 1 0 1 3 1 1 5 7 8 2 7 7 11 4 10 7 3 1 3 3 4 3 1 0 0 1 2 5 2 1 2 0 3 2 5 4 3 6 2 2 2 1 3 5 5 5 5 7 3 3 4 7 8 5 10 13 9 6 7
4 4 4 5 5 6 6 6 6 7 2 3 2 3 3 3 4 3 1 1 3 4 3 3 8 5 2 1 1 3 5 6 3 3 1 3 5 5 4 7 7 4 4 1 1 2 2 0 1 2 3 3 4 3 2 4 2 2 2 2 2 3 6 4 2 5 4 5 5 3 3 3 2 1 2 3 2 3 9 6 7 8 6 3 5 10 9
4 4 5 5 5 6 6 6 7 7 3 2 3 4 2 3 4 3 1 1 4 3 3 5 8 1 2 2 4 3 5 5 3 3 3 0 1 3 7 4 8 3 2 3 1 3 3 4 3 4 3 5 3 3 4 5 1 3 3 3 2 4 4 4 2 6 5 4 2 4 2 4 1 1 2 4 10 12 13 10 9 10 11 13 12 9 9
4 5 5 6 5 6 6 7 7 7 5 3 3 5 1 5 2 2 2 1 2 4 6 6 1 1 2 6 5 2 5 5 5 6 2 3 4 5 2 1 2 1 1 2 5 4 3 0 1 0 2 4 3 6 10 10 6 7 6 3 4 2 4 2 2 4 4 4 2 3 3 1 2 1 5 3 3 4 8 11 9 7 6 9 11 10 11
5 5 6 6 6 6 7 7 8 7 7 4 5 5 2 3 3 2 1 1 4 3 1 3 5 6 7 5 5 4 4 5 3 3 3 0 3 3 3 2 2 4 4 5 4 3 4 4 1 2 2 2 2 3 0 11 10 8 8 6 4 6 3 3 2 2 5 1 4 3 4 2 1 2 3 4 3 4 2 5 4 4 4 9 11 11 11
5 5 5 6 7 7 8 8 8 8 7 6 5 5 5 5 4 2 4 1 1 5 1 4 2 1 3 2 2 4 3 1 3 1 0 1 2 2 4 2 1 3 4 4 2 4 2 2 2 1 1 3 1 2 1 2 1 6 5 5 8 3 3 2 5 1 4 6 5 3 1 4 4 2 2 3 4 4 4 2 3 4 4 8 12 11 11
6 6 6 7 8 8 9 8 8 8 8 7 5 6 6 5 4 4 4 2 1 6 5 2 0 3 2 2 2 6 2 2 0 1 2 1 0 2 0 2 2 4 3 4 2 2 1 3 1 2 1 2 1 3 0 1 1 1 5 4 10 6 6 5 5 3 3 3 5 4 5 2 1 2 4 5 6 6 5 3 1 1 3 6 11 12 11
6 7 7 8 9 9 9 9 9 8 8 7 4 4 7 6 7 6 4 3 1 1 6 3 2 4 6 5 6 6 2 1 0 1 0 2 3 0 1 2 2 3 2 3 2 2 1 2 2 2 1 0 1 3 1 2 1 4 9 6 10 8 4 3 4 3 1 3 2 3 0 2 1 3 4 7 7 8 1 3 4 1 2 6 8 10 11
7 8 9 9 10 11 11 11 10 8 8 7 5 5 5 2 7 6 3 3 0 3 5 5 6 6 4 1 1 1 2 3 4 2 3 2 1 3 3 2 3 3 2 1 1 3 1 1 1 1 1 2 1 4 2 3 2 1 1 2 2 3 2 4 4 3 5 6 2 2 1 1 1 3 6 7 6 3 5 5 3 2 5 5 6 7 5
8 8 9 10 12 12 12 12 11 10 8 7 4 5 9 8 7 6 2 1 1 3 5 3 4 4 1 3 3 2 1 1 2 4 1 4 2 3 0 2 1 1 6 2 3 1 2 0 1 2 2 3 4 1 0 4 1 0 1 1 2 2 1 1 4 4 3 2 5 2 1 1 1 2 5 4 2 4 4 2 2 6 7 5 6 9 7
8 9 10 12 13 13 14 13 12 10 9 7 3 5 8 3 7 12 8 2 1 2 4 4 3 8 2 4 3 3 2 6 2 6 2 2 3 3 4 2 4 3 3 4 2 0 3 1 1 1 2 1 0 2 4 3 2 1 1 0 2 1 2 1 2 0 2 3 4 2 2 1 2 7 2 1 1 0 5 8 7 6 7 8 7 8 7
9 11 12 13 14 14 14 13 12 11 9 9 3 4 7 5 10 11 9 3 1 4 4 3 2 4 3 5 3 4 6 6 1 3 2 1 1 3 3 3 2 1 1 2 5 0 2 1 0 1 1 2 1 4 5 3 2 3 2 1 3 1 2 0 0 1 3 2 4 4 0 3 3 2 2 1 1 7 8 9 7 7 7 9 9 7 7
10 11 12 13 14 14 14 13 13 12 10 9 5 3 5 6 3 7 8 4 1 3 4 0 1 3 2 4 5 4 6 6 3 4 5 2 3 3 3 3 0 1 1 2 3 1 1 1 1 2 3 2 4 3 3 5 1 1 3 3 2 4 1 1 4 2 0 2 2 1 1 4 3 3 0 5 6 6 5 9 9 9 7 9 10 11 9
10 12 13 14 14 15 14 14 13 13 11 9 3 4 5 6 7 3 7 4 1 2 4 5 4 3 2 1 1 2 3 3 4 4 6 7 2 3 3 1 0 1 0 0 5 5 4 5 2 4 4 2 4 3 6 2 2 1 3 4 4 4 9 6 8 8 7 9 6 3 4 5 6 8 7 10 9 7 7 10 10 7 9 8 11 11 11
11 12 14 14 15 15 15 15 14 14 13 10 5 3 6 5 5 2 4 6 4 4 4 6 6 1 1 1 2 1 2 2 0 1 2 7 5 0 1 1 1 2 1 1 3 5 4 3 2 2 4 1 2 4 4 4 4 5 5 2 2 1 1 3 6 7 0 4 5 7 7 7 8 9 10 9 7 6 6 8 9 10 9 10 10 11 11
12 13 14 14 15 15 15 15 15 15 14 12 7 6 5 5 3 1 4 3 1 2 3 1 1 2 0 1 1 2 1 0 4 4 4 4 6 5 3 1 2 4 1 1 2 8 5 5 2 3 6 1 2 3 2 5 4 1 3 1 2 3 3 10 7 7 3 5 5 6 7 8 7 6 8 9 8 8 7 7 8 10 9 10 11 10 9
13 14 15 15 15 16 15 15 16 15 14 11 6 4 2 1 2 2 7 4 3 5 4 1 2 1 1 5 3 1 0 2 4 6 4 3 4 7 6 3 6 5 4 3 7 7 4 5 4 2 5 3 2 4 3 1 4 2 5 1 2 4 2 3 2 6 9 10 6 7 11 11 9 9 8 7 7 7 9 8 10 10 11 9 8 7 9
14 15 15 15 16 15 16 16 16 15 15 13 4 3 2 1 3 6 2 3 6 3 4 2 2 2 2 1 1 2 4 6 7 8 8 7 9 9 9 7 8 6 9 7 4 5 4 4 5 5 3 4 2 3 3 4 4 3 3 2 2 7 5 8 11 9 3 3 7 4 7 6 5 7 7 9 8 8 9 8 10 8 9 8 8 5 4
15 15 16 16 16 16 16 16 15 17 17 14 5 2 1 4 5 3 3 3 1 5 5 2 4 2 2 5 5 7 8 9 8 9 8 9 10 11 9 8 7 7 4 6 6 6 5 9 7 1 3 2 5 6 3 2 2 5 5 4 1 7 11 7 7 8 8 6 5 5 9 9 8 9 7 7 7 9 9 8 7 6 7 7 7 8 6
15 16 16 16 15 16 16 16 16 17 17 10 4 6 4 2 2 5 4 1 6 6 4 1 2 5 3 1 3 10 9 12 10 9 9 11 11 8 7 6 6 5 6 6 5 3 4 3 2 3 3 2 5 3 2 6 5 5 3 3 4 2 4 5 8 13 11 9 9 7 7 10 9 9 9 8 7 8 9 8 8 8 8 8 8 8 9
15 16 17 17 16 16 16 16 16 17 15 3 6 6 5 2 3 4 5 3 1 5 3 3 6 2 1 2 5 5 8 9 10 12 12 11 10 8 6 8 6 4 4 4 4 6 2 4 2 2 1 2 5 2 4 3 7 4 2 6 8 10 10 9 6 7 11 9 9 9 11 10 9 9 8 8 7 8 9 10 9 9 8 9 9 7 6
16 16 17 17 17 16 16 16 15 17 11 5 5 4 1 2 3 3 6 5 2 5 3 4 3 1 3 0 3 6 6 6 7 8 8 6 5 5 4 8 5 5 7 5 5 1 2 4 2 3 4 5 3 4 4 4 5 2 1 3 4 6 8 9 10 12 12 11 10 9 9 8 6 8 6 5 5 6 6 5 7 8 8 7 7 6 5
16 17 17 17 17 16 16 14 15 12 6 7 4 3 2 3 3 7 7 4 1 6 3 4 2 3 0 2 1 0 3 3 3 3 3 4 8 6 9 7 4 4 5 5 2 4 3 1 5 4 5 4 5 3 3 5 9 5 3 5 5 8 9 11 11 11 11 11 13 12 9 8 7 8 8 5 4 3 5 6 5 6 7 6 4 4 4
16 17 17 18 18 17 16 14 13 8 1 3 4 4 6 8 10 9 5 2 5 1 3 3 3 1 2 1 2 4 3 3 5 4 4 2 5 4 7 4 5 6 5 7 4 3 0 3 3 7 3 3 4 3 4 5 6 7 9 8 8 8 8 8 9 9 10 9 8 11 11 10 7 5 7 6 4 5 5 6 5 6 7 7 5 4 4
16 17 17 18 17 17 16 14 12 3 1 2 3 1 1 5 5 9 2 3 3 1 3 2 1 2 2 3 6 1 2 3 1 2 5 3 1 6 3 3 5 5 5 6 1 5 3 5 5 3 3 4 3 5 5 4 6 10 10 8 8 7 7 7 7 8 7 6 2 4 7 5 5 5 5 4 4 4 5 5 6 7 5 6 5 4 4
17 17 17 18 17 16 15 9 5 2 0 1 0 2 1 6 4 7 1 3 3 1 2 1 2 4 2 2 2 1 1 5 2 1 5 1 2 4 1 6 4 7 3 3 5 2 3 0 3 6 3 2 5 4 3 6 10 10 9 10 9 8 6 6 4 5 4 3 4 5 7 8 9 7 6 5 5 6 7 5 4 6 6 4 4 4 3
16 17 16 17 17 10 4 1 1 2 2 0 2 4 7 9 4 0 3 3 3 2 2 1 2 3 4 5 4 1 1 3 0 1 1 1 3 2 4 3 6 2 1 4 3 4 3 0 4 3 3 6 1 1 5 10 12 13 12 12 11 11 10 10 8 6 4 5 7 6 7 6 9 7 5 5 5 4 4 5 4 3 4 4 3 1 1
16 16 16 13 5 1 1 1 1 0 1 2 4 7 8 4 1 3 3 2 2 2 3 3 4 3 4 3 0 1 4 5 1 4 1 3 3 1 5 4 5 0 5 3 3 4 2 1 6 4 3 4 3 3 8 11 12 12 11 10 7 7 7 6 8 10 10 9 9 7 7 6 5 4 4 5 5 5 5 5 5 4 4 4 2 3 3
15 10 2 2 2 2 1 2 0 1 2 5 5 4 6 7 1 3 2 2 1 2 2 3 1 2 1 5 3 1 4 1 2 3 1 0 4 1 1 3 1 3 4 2 1 2 3 4 3 4 2 1 3 8 8 8 7 8 8 7 7 7 7 7 9 12 11 8 6 5 6 7 6 6 8 6 6 5 4 4 5 6 8 6 6 7 6
3 1 1 1 2 1 2 1 3 3 1 3 3 1 2 1 2 1 0 0 1 0 1 3 3 2 5 4 0 2 5 5 3 2 3 2 3 0 1 5 0 4 2 3 2 3 3 2 2 3 4 3 5 4 5 7 6 6 8 8 8 8 8 8 9 10 8 7 8 8 10 9 9 6 7 7 5 5 7 8 9 9 9 8 7 7 8
2 1 0 1 1 2 4 5 6 1 3 2 2 3 0 1 2 1 1 1 0 2 1 2 2 2 3 8 6 1 1 5 4 1 2 1 0 4 1 3 0 4 2 3 2 2 5 2 0 3 3 1 4 4 6 7 7 4 6 6 8 8 8 7 6 6 7 5 6 8 8 9 10 10 9 9 9 8 6 7 7 7 8 8 8 8 7
3 2 2 1 2 3 5 5 3 3 1 2 2 1 1 0 1 1 1 0 1 1 1 3 1 3 1 3 3 3 2 2 1 4 4 2 1 3 3 1 1 3 0 1 1 2 2 3 1 3 5 4 7 5 6 6 6 5 5 5 5 6 7 8 8 8 9 8 6 7 7 8 9 9 9 8 8 8 9 9 9 9 8 7 7 6 5
1 1 1 2 3 4 3 2 2 1 2 0 2 0 0 1 1 1 1 2 1 0 3 2 3 4 3 2 3 4 1 1 2 2 2 1 1 2 1 0 1 3 1 2 2 2 2 2 2 2 4 3 4 5 7 7 5 6 5 4 6 7 9 9 8 8 10 10 7 6 6 8 10 9 8 8 7 8 9 9 8 8 7 6 6 6 6
11 7 3 1 1 0 0 1 2 1 2 0 2 1 1 1 2 3 1 1 1 2 1 1 1 1 1 3 3 1 2 0 1 1 2 1 1 2 2 1 1 2 2 2 2 2 2 2 4 6 5 4 6 7 7 7 5 5 5 4 8 10 9 11 11 9 9 10 9 8 7 8 8 7 6 8 7 5 4 6 9 7 6 6 6 6 5
2 2 1 0 1 1 2 1 1 2 2 0 2 3 1 1 0 1 1 1 0 1 1 7 2 5 3 2 3 1 2 3 3 2 1 0 2 0 1 1 1 1 1 3 2 3 3 2 6 7 6 4 5 7 7 6 7 5 4 4 5 9 9 8 9 9 7 6 7 7 8 7 6 5 6 7 8 8 6 8 8 9 6 6 5 6 6
2 1 2 2 1 1 2 2 2 2 2 2 1 2 2 4 4 2 4 4 3 6 1 6 6 6 4 1 3 2 1 1 1 3 1 1 2 1 2 1 1 1 2 3 1 1 1 1 1 3 5 6 7 7 6 6 6 7 5 5 6 8 11 10 9 9 8 8 8 8 7 6 6 5 5 6 6 7 7 7 7 8 7 7 6 5 4
0 2 2 3 2 2 1 1 0 0 2 2 2 5 5 5 5 3 5 1 4 5 8 5 5 7 4 1 4 2 0 2 2 0 0 2 3 0 1 0 2 2 1 2 2 4 6 7 7 8 8 9 8 7 7 5 5 5 8 7 8 9 9 11 9 9 9 8 7 8 8 7 7 7 6 5 5 5 5 5 6 9 8 7 6 6 5
0 1 1 1 2 1 1 1 3 3 4 3 5 6 6 8 6 4 2 2 6 6 6 2 5 5 6 0 2 2 2 1 2 1 2 2 1 1 1 2 1 1 3 1 1 2 2 4 7 9 8 9 8 6 6 6 5 6 6 6 9 10 8 9 9 10 7 7 7 9 7 7 7 7 6 5 5 5 5 5 5 7 9 9 7 5 5
1 1 2 2 2 1 2 5 3 1 1 3 4 6 5 1 1 2 1 2 7 7 7 5 5 3 4 2 5 2 0 1 2 1 1 1 1 2 1 1 0 1 1 4 5 5 6 8 9 9 9 10 9 8 7 6 6 7 6 7 8 9 8 9 8 9 8 8 6 6 6 5 6 4 5 5 4 1 2 4 4 4 4 4 5 6 6
0 0 1 2 1 2 2 4 1 1 5 3 2 1 2 2 4 4 3 6 8 8 7 7 4 4 1 1 2 2 1 1 3 1 1 2 1 2 2 2 1 1 2 3 5 6 10 10 8 10 10 9 8 9 8 8 8 8 7 6 6 9 9 8 8 7 6 6 7 7 7 5 5 5 5 5 7 5 5 5 5 5 5 7 5 4 3
0 1 1 0 2 2 2 1 1 3 6 3 2 3 3 4 4 4 3 6 4 6 3 4 3 5 1 1 1 1 0 0 1 0 2 0 1 1 2 0 2 3 2 2 4 5 8 9 9 10 10 10 9 10 9 7 8 7 6 6 6 6 8 8 7 7 9 8 8 8 7 6 6 6 7 8 7 5 4 4 5 5 5 6 7 5 5
0 1 2 3 4 1 1 0 2 3 1 3 6 5 5 6 6 5 2 5 4 5 4 2 2 2 1 2 1 1 1 0 2 1 3 2 1 2 3 2 3 5 3 2 7 10 10 10 11 11 10 10 9 9 9 8 8 8 8 8 7 7 7 8 8 7 6 7 8 8 6 5 6 6 5 4 5 5 4 1 1 2 5 4 4 5 5
1 0 1 2 1 3 4 5 2 5 4 4 7 6 4 5 4 3 2 8 6 7 3 1 2 2 2 1 2 1 0 2 0 0 0 2 2 2 2 5 4 5 7 8 7 8 9 8 10 11 11 11 10 9 9 8 8 7 8 8 8 8 7 7 8 7 6 5 6 6 6 6 6 5 4 4 3 3 1 1 2 3 4 5 5 4 3
Wind_Direction
295 287 289 310 296 298 308 311 318 324 346 330 348 307 243 222 213 146 141 199 151 107 63 197 208 229 249 286 281 281 273 266 284 290 317 11 86 5 48 121 47 351 59 344 11 18 85 73 87 148 81 53 25 298 345 114 56 67 6 28 293 101 83 157 284 307 290 318 66 49 45 62 43 16 18 60 64 183 161 170 187 137 167 90 25 67 225
291 286 300 307 300 309 307 307 319 326 346 328 317 300 280 301 340 353 199 209 227 104 150 221 260 292 287 278 275 272 270 286 292 289 325 22 357 86 8 16 61 78 31 50 22 19 83 73 110 84 71 64 323 355 27 80 54 70 224 128 256 89 299 125 87 326 338 344 343 28 13 54 87 295 329 283 224 102 156 96 35 109 214 174 125 171 223
291 286 308 303 303 306 308 309 319 325 330 329 332 299 309 298 337 164 275 231 146 167 192 129 162 237 277 292 278 267 257 232 224 212 338 354 24 79 25 83 115 44 54 78 53 28 82 105 28 109 73 103 315 350 22 61 85 52 125 186 53 90 141 96 146 174 196 214 205 188 1 28 302 20 333 354 36 16 77 179 15 117 317 78 98 131 238
283 290 308 302 306 303 303 314 311 318 326 332 295 286 271 164 128 288 75 263 168 250 285 282 247 270 280 298 254 225 244 317 70 40 4 47 3 95 190 20 67 41 50 45 49 41 22 74 316 44 39 16 21 348 11 44 56 27 38 31 87 98 49 79 149 158 177 174 140 229 124 26 62 321 25 349 349 24 94 96 94 145 166 78 235 156 139
283 296 307 298 301 301 302 311 310 313 318 320 302 275 263 331 146 129 141 148 183 236 281 243 186 231 198 220 265 273 204 231 18 12 65 6 343 16 47 48 43 339 69 66 81 59 71 38 71 38 108 7 173 351 45 26 19 1 25 358 76 60 55 4 68 67 110 129 107 119 118 107 72 62 10 10 13 21 73 99 167 150 101 40 108 155 129
286 303 298 299 300 296 301 313 308 311 312 322 220 248 227 100 278 75 214 152 202 199 272 233 249 254 290 267 283 292 24 13 84 334 68 55 25 87 340 27 21 19 165 135 89 71 67 27 92 34 18 40 348 22 353 52 341 18 25 351 99 121 92 323 70 68 94 113 118 110 81 77 88 64 48 39 26 42 67 9 57 98 134 166 169 134 111
302 304 299 300 295 294 304 313 311 317 311 308 218 256 203 250 258 238 271 105 249 178 223 261 219 245 214 271 275 337 46 3 193 131 339 29 355 75 68 332 4 29 58 104 119 88 68 2 347 132 26 48 27 20 344 348 9 47 43 14 87 90 34 327 68 93 55 62 110 105 103 94 58 39 33 17 61 61 59 54 13 66 129 129 123 99 86
310 298 305 302 295 290 310 315 314 318 327 302 226 252 222 186 84 306 339 295 305 310 305 235 210 266 221 220 270 161 164 25 345 53 92 21 330 31 90 50 54 56 54 59 63 339 148 162 117 345 99 2 73 122 178 249 330 53 47 29 333 102 229 186 34 74 24 3 49 70 98 100 84 35 30 24 28 62 45 63 34 58 62 91 110 111 104
300 299 295 299 300 314 316 322 327 322 333 274 242 268 201 303 314 342 357 345 279 112 230 359 56 352 296 147 276 63 11 27 205 44 63 127 231 64 136 143 63 51 62 55 72 80 103 95 98 151 122 92 220 118 271 122 88 36 42 30 352 68 169 123 89 86 12 345 68 100 89 82 78 46 22 7 4 53 8 44 295 137 136 120 107 105 121
293 305 296 290 300 310 315 323 322 323 315 293 298 263 314 274 276 291 177 276 293 358 309 353 36 292 236 165 253 99 279 266 74 24 9 47 48 42 125 105 94 33 58 37 8 289 104 98 141 143 173 187 261 144 188 144 137 118 79 99 93 111 124 95 92 84 157 214 311 288 99 68 35 6 334 334 12 90 84 46 33 77 139 135 152 144 117
309 311 307 295 299 304 316 318 318 317 332 293 305 302 336 357 347 342 312 178 318 215 217 227 170 226 190 167 69 47 42 38 59 112 299 13 8 31 90 99 97 110 77 118 251 192 150 200 68 69 52 65 17 8 80 63 107 137 136 52 24 83 116 131 154 116 168 158 164 347 22 119 201 332 314 274 319 96 74 46 43 38 55 60 68 106 110
316 315 297 301 300 307 311 316 315 310 310 279 284 277 270 289 292 245 139 102 263 234 184 216 172 190 143 156 111 112 91 77 72 128 123 48 324 41 78 77 92 65 239 215 358 33 20 20 18 9 17 11 11 6 143 113 318 48 85 125 108 100 91 136 126 114 152 154 106 65 206 228 89 314 338 46 78 82 83 72 62 76 89 93 90 98 105
334 315 310 308 305 306 315 315 313 302 294 270 256 261 321 7 311 283 267 149 263 332 9 324 355 98 118 75 78 74 131 137 121 100 79 111 21 29 10 89 101 201 226 103 59 58 85 141 339 114 309 336 356 44 34 35 39 48 48 76 114 122 110 153 52 114 74 100 155 169 222 152 160 84 27 345 58 58 74 57 40 62 81 102 105 110 111
322 312 304 302 311 320 319 316 311 305 284 264 260 260 278 283 263 295 255 89 298 265 264 313 22 81 89 88 107 76 32 46 27 96 95 286 115 69 37 84 152 169 149 93 61 69 39 34 52 31 318 20 4 30 327 74 46 40 35 22 72 125 94 84 106 36 136 104 70 61 107 127 14 10 20 13 23 2 54 107 37 48 124 113 119 121 121
311 308 305 314 316 316 317 311 311 303 296 267 244 258 247 240 248 265 302 346 292 292 208 71 315 75 90 80 96 69 55 320 57 27 226 153 86 183 150 164 194 94 68 80 17 39 126 108 57 86 335 76 147 205 342 84 88 56 34 29 63 76 125 218 111 349 109 131 111 117 156 204 213 151 70 32 360 322 299 99 100 52 110 130 129 136 137
321 315 313 314 315 316 315 315 309 304 287 276 255 257 258 232 219 251 278 294 345 36 345 274 51 61 84 54 54 102 87 63 52 319 3 330 243 60 200 125 56 72 59 73 102 92 82 93 182 90 174 191 223 90 234 46 25 53 68 42 68 44 81 108 113 138 72 109 139 173 187 216 106 100 331 341 338 332 317 81 114 18 146 150 138 144 155
314 315 315 317 318 319 319 316 311 301 296 269 250 249 260 186 191 199 221 249 128 209 265 312 106 86 63 0 8 26 63 62 123 124 282 329 305 356 97 22 347 54 89 75 23 63 34 43 101 139 278 184 73 169 99 54 45 332 334 16 43 51 7 33 65 78 97 137 96 177 348 209 165 326 322 320 321 308 54 162 211 7 101 142 142 147 156
320 320 322 322 325 325 320 318 313 307 296 282 259 258 259 182 188 185 244 244 54 306 326 338 60 57 61 182 162 295 51 14 36 41 97 294 354 30 307 11 32 350 97 85 88 69 73 102 155 142 133 270 159 65 145 161 76 234 347 343 8 8 2 51 164 134 93 91 81 61 271 213 278 315 313 315 301 343 160 209 127 125 81 89 110 106 99
318 319 324 327 327 325 320 319 316 312 308 292 267 284 263 222 201 198 224 263 98 49 312 358 73 86 86 52 106 89 109 147 143 98 328 16 354 312 288 130 115 176 358 125 68 90 121 290 36 119 115 328 28 135 283 52 222 301 54 38 29 359 62 37 63 66 126 156 101 179 236 241 12 274 291 281 68 159 211 97 93 114 95 79 103 105 91
320 328 331 329 326 324 320 318 318 317 316 308 239 241 266 228 186 183 184 188 137 92 360 15 48 68 24 100 61 57 21 28 47 119 134 135 278 37 29 14 326 76 360 52 70 221 107 171 213 71 52 110 322 128 70 44 53 119 155 207 124 221 97 155 98 160 74 60 89 61 213 222 52 317 317 53 173 149 111 107 73 84 96 95 78 97 109
331 330 330 328 326 323 319 320 318 318 319 313 282 264 296 257 181 204 212 195 114 71 352 312 40 67 74 83 121 146 120 129 161 96 201 171 190 90 138 198 225 126 196 126 143 220 139 110 231 121 199 121 252 61 151 143 46 13 112 161 113 229 83 159 243 256 141 127 155 192 284 318 319 331 151 292 83 136 136 117 107 98 102 103 102 82 93
331 328 328 328 324 322 320 321 318 317 320 310 292 213 256 267 201 202 187 136 108 126 169 112 90 128 136 162 164 161 140 147 196 153 137 82 355 129 175 127 174 145 215 121 65 49 17 160 55 63 85 36 24 101 160 81 116 273 19 56 49 309 163 247 133 313 74 163 145 22 334 293 280 233 80 87 81 99 109 107 119 124 111 117 108 113 106
330 329 330 327 325 322 322 320 319 316 313 309 295 206 246 307 321 49 129 103 356 1 360 8 2 6 354 333 273 182 175 148 111 95 125 110 34 13 100 99 324 204 156 100 171 154 179 120 154 158 76 61 142 99 50 96 148 354 57 354 129 124 114 106 84 84 93 61 55 53 18 8 41 53 73 89 86 78 94 111 113 107 119 126 123 123 119
331 332 329 327 325 325 323 323 318 316 310 303 278 208 251 243 271 346 37 64 116 98 359 6 64 29 176 101 288 321 53 76 130 138 139 118 113 318 336 238 178 42 29 247 173 135 173 108 140 116 106 285 70 73 120 81 76 121 111 122 125 238 313 63 97 178 101 61 2 40 33 24 48 72 69 66 65 76 93 101 103 114 115 112 113 121 125
334 332 330 328 328 326 324 323 320 314 308 303 280 243 264 292 239 153 97 112 23 85 140 321 348 222 255 227 51 34 321 165 116 116 87 88 126 143 159 208 171 136 135 359 38 62 44 97 37 60 93 329 114 69 1 109 141 136 89 108 115 8 63 81 70 68 59 113 93 71 61 49 42 58 86 83 76 77 78 95 107 109 110 115 122 122 119
333 331 331 331 329 327 324 323 319 311 302 296 275 195 192 281 305 97 86 72 93 104 106 103 72 2 89 68 44 277 84 68 48 45 62 122 126 124 115 62 35 36 83 60 63 80 87 58 80 67 96 50 56 106 61 41 128 71 106 221 211 150 185 87 185 102 92 86 79 102 77 54 51 64 68 78 92 97 95 98 101 105 110 116 118 121 131
331 331 331 332 329 327 326 323 318 312 311 313 294 202 221 311 358 76 124 160 92 18 33 90 284 313 16 40 295 336 30 57 56 63 53 54 78 74 78 79 83 48 68 55 35 92 60 76 68 69 46 94 82 78 99 46 52 76 74 67 69 73 91 121 116 106 114 145 157 175 111 106 73 77 99 101 91 92 94 97 99 106 112 116 120 118 114
330 330 330 330 330 328 326 323 319 321 317 318 281 167 166 62 9 24 78 111 116 170 164 151 97 119 353 58 2 37 34 50 58 63 60 63 81 90 90 95 91 82 52 74 41 39 60 86 90 74 76 71 72 53 28 95 79 49 30 336 332 130 157 154 143 146 142 129 121 78 97 99 109 116 113 108 113 113 108 104 115 124 124 126 123 123 122
329 330 329 329 329 330 327 326 323 320 323 330 103 79 45 58 43 31 28 25 106 99 98 133 316 25 83 118 23 52 44 64 61 64 64 60 61 63 77 72 81 93 77 67 96 91 76 96 148 81 91 124 87 81 42 56 61 62 326 351 39 40 121 101 109 96 89 111 113 109 109 119 126 119 122 126 128 121 113 117 118 119 115 116 115 118 122
330 329 327 328 330 330 329 327 322 326 331 25 63 53 48 337 334 13 1 3 126 119 91 94 85 112 325 36 52 66 65 57 61 60 60 61 59 66 78 85 69 63 87 116 122 83 89 93 15 29 14 53 98 133 77 113 89 81 10 58 75 83 87 93 93 105 128 128 115 116 115 113 114 121 122 120 127 124 124 126 126 123 121 120 117 117 118
330 328 326 328 329 329 328 328 327 336 345 67 70 70 41 81 297 293 2 352 32 102 121 94 119 300 44 70 104 65 73 59 66 69 67 68 72 67 61 77 49 67 69 36 45 68 74 40 49 12 22 43 101 86 134 114 100 81 95 73 70 82 90 93 99 110 117 121 123 121 116 110 110 112 111 133 132 136 131 131 129 122 120 116 126 133 127
329 327 326 328 327 328 328 326 333 340 13 62 95 152 176 190 219 295 329 330 33 59 67 75 22 33 77 340 4 23 77 51 53 25 6 38 43 27 52 64 81 33 98 102 102 58 31 46 69 49 68 1 55 86 58 83 103 125 124 80 85 98 104 110 116 119 123 132 135 126 118 129 153 146 150 162 127 104 116 116 108 101 99 98 100 101 125
328 327 327 325 327 327 324 318 327 357 8 259 253 274 273 275 279 289 294 331 54 109 117 81 115 170 78 205 345 3 43 27 20 32 41 1 89 42 63 7 45 47 14 74 23 83 297 78 25 57 345 22 75 83 85 84 118 132 121 118 116 117 115 121 123 127 137 149 155 140 149 159 172 166 147 142 134 125 120 116 119 109 103 101 98 94 82
326 326 325 323 322 323 317 313 318 331 35 31 52 339 282 240 294 299 298 84 98 34 78 105 51 62 93 322 83 301 58 116 135 59 87 11 129 68 70 46 18 80 357 90 9 67 25 62 78 93 17 22 35 80 83 103 118 117 118 121 120 115 122 121 127 136 148 153 128 114 128 126 110 109 102 113 113 111 111 107 113 113 120 122 131 142 146
324 322 320 319 317 314 313 324 10 50 80 303 235 251 259 288 255 278 52 109 83 358 33 5 109 89 58 6 88 232 95 84 110 146 120 110 63 116 52 65 358 73 27 65 56 74 92 87 156 69 87 339 45 71 82 128 121 124 125 129 132 126 119 119 158 163 163 137 114 111 116 122 123 133 150 145 139 139 126 123 119 120 129 153 150 154 145
317 315 315 314 310 308 318 24 70 44 26 153 214 250 294 303 316 30 87 95 125 144 95 193 85 136 143 123 129 210 35 74 286 43 114 137 19 33 91 107 76 22 116 72 109 14 77 352 68 31 323 68 22 99 126 121 125 136 140 145 153 153 163 168 170 172 151 137 129 124 124 129 142 154 151 151 140 130 121 126 124 115 146 165 192 171 50
311 314 314 306 312 48 15 233 274 141 202 203 249 298 323 14 355 54 17 35 1 95 135 138 87 191 148 177 243 279 81 145 329 62 357 66 120 303 62 47 93 332 36 13 29 66 14 35 93 71 24 98 105 127 117 120 123 130 140 150 155 144 136 135 137 129 127 135 136 145 150 149 142 130 133 149 164 149 128 162 164 160 175 162 118 110 153
309 318 350 16 43 45 5 320 275 254 313 309 1 27 1 29 85 338 356 39 283 60 350 69 145 231 20 81 119 242 81 192 53 121 341 184 83 49 66 101 142 93 64 71 34 182 72 33 62 100 61 55 137 113 111 110 124 129 134 133 130 129 131 129 117 108 113 110 101 102 105 120 139 161 160 170 161 154 161 151 142 127 118 119 123 125 114
331 347 19 34 97 176 188 233 281 305 49 1 52 61 355 358 56 17 311 273 25 23 286 106 202 162 100 70 329 298 141 164 83 52 101 274 112 250 44 90 325 76 99 74 89 60 66 14 17 48 85 111 101 119 118 116 115 127 129 130 127 132 132 135 131 126 136 145 154 146 132 134 130 126 122 115 110 122 139 127 109 112 117 117 117 112 111
33 26 73 44 78 252 262 275 307 6 55 70 336 103 92 327 95 261 283 60 350 290 58 95 196 155 173 143 137 70 329 84 122 156 144 319 347 136 229 86 175 89 146 103 225 37 112 122 6 74 132 147 140 180 129 127 122 143 126 124 121 130 132 134 132 133 132 132 134 131 124 127 126 124 123 125 124 110 97 100 115 117 121 128 133 125 132
5 354 27 70 272 317 299 305 353 49 67 41 16 2 71 350 287 190 74 44 156 217 204 146 52 68 54 75 80 120 283 89 157 134 113 106 251 80 56 108 203 89 169 91 260 72 73 77 43 128 199 190 154 174 137 126 137 152 141 136 119 121 118 112 119 120 110 107 105 110 117 115 109 120 126 129 128 126 128 130 133 136 134 133 135 144 148
203 186 210 279 278 276 308 4 66 48 9 80 115 237 223 211 338 12 125 132 226 250 347 76 93 132 143 147 161 132 343 199 124 102 99 89 303 110 164 114 38 113 158 219 148 80 83 101 126 170 227 212 167 156 138 142 154 157 172 135 124 128 120 120 113 107 111 115 114 111 110 115 121 129 134 129 129 130 128 127 135 142 147 153 136 136 150
271 246 169 304 9 311 108 58 309 103 112 36 44 86 346 95 211 154 243 277 293 98 251 82 155 130 19 58 46 59 170 216 105 7 74 159 293 59 92 51 70 81 159 114 93 118 97 151 165 220 214 186 165 151 153 153 158 155 165 166 141 135 134 129 127 129 127 125 127 125 123 117 125 137 138 123 117 106 100 123 143 150 154 151 152 158 164
141 123 80 323 72 303 75 116 295 54 4 54 105 160 204 103 287 25 81 234 44 84 184 125 172 102 125 340 133 329 11 2 45 78 45 314 83 36 59 85 160 236 68 77 89 140 193 191 199 188 190 177 170 148 150 148 136 117 116 138 136 130 125 120 116 110 107 108 110 114 111 114 114 115 118 123 127 134 143 145 156 154 157 148 156 177 186
84 14 35 25 34 273 64 302 321 120 175 243 137 165 147 167 219 173 174 242 107 188 132 93 111 92 108 275 44 8 114 171 300 95 233 80 50 14 103 181 213 47 111 162 71 80 81 190 229 130 162 166 166 155 147 141 130 131 134 103 116 133 132 130 128 124 129 128 129 114 110 117 113 118 126 136 142 141 142 150 157 150 160 167 176 186 198
95 152 91 86 16 314 109 195 64 8 286 156 192 195 161 220 170 214 246 140 93 103 111 132 87 87 59 329 123 195 23 81 58 19 141 71 98 97 248 80 71 95 61 72 121 179 200 196 173 171 176 164 156 158 144 139 131 124 103 110 134 145 145 137 139 135 139 137 133 122 127 122 125 126 135 146 149 153 163 160 151 153 168 165 179 187 202
44 10 98 111 99 264 91 157 232 205 178 197 207 171 182 200 197 196 217 123 127 159 127 132 110 150 133 167 59 8 31 60 97 283 66 59 147 251 358 104 205 169 139 179 194 214 226 211 177 166 167 155 148 147 135 135 134 119 126 123 121 142 144 137 138 143 151 140 136 135 141 141 147 150 147 132 152 167 169 166 165 146 156 178 186 178 188
115 225 86 94 221 184 156 240 205 272 251 171 206 200 212 149 106 272 284 101 142 127 120 102 92 41 35 315 81 149 165 51 80 321 135 161 31 44 20 37 284 243 163 152 212 210 169 173 171 168 163 150 146 138 135 130 125 123 119 111 120 136 146 144 146 150 151 145 144 141 137 147 144 139 139 146 141 120 113 116 128 123 122 133 160 178 181
166 105 139 199 199 156 228 248 122 257 269 278 243 107 128 153 224 219 187 131 134 143 149 122 170 89 72 301 89 59 36 326 94 249 18 34 97 193 146 195 182 201 261 163 189 174 167 170 165 153 148 144 144 139 141 137 132 127 122 114 123 143 151 148 144 145 131 125 134 139 139 144 132 123 122 121 116 135 144 141 137 132 126 128 143 146 155
96 338 3 59 4 313 268 70 79 283 298 296 130 174 179 160 161 200 182 101 125 109 74 59 61 92 189 95 47 34 300 301 135 58 60 70 192 176 83 51 235 184 236 222 166 158 148 149 145 144 149 145 143 139 137 137 128 121 113 111 115 118 127 126 123 132 136 137 132 132 136 129 127 129 131 140 159 166 163 151 154 144 155 157 149 150 154
288 125 230 180 145 210 145 227 208 227 135 187 172 177 145 164 157 159 182 117 108 72 52 130 181 99 60 32 62 68 248 168 68 145 155 194 205 114 160 190 239 215 230 240 148 146 153 154 149 146 142 142 143 140 137 137 131 127 121 115 117 111 109 111 114 112 119 125 120 102 97 116 139 144 145 127 124 114 92 61 267 198 164 163 151 157 167
51 30 281 284 206 186 195 207 186 220 171 156 141 188 131 112 141 139 115 103 91 101 150 172 79 80 75 125 215 184 31 47 127 96 73 268 142 143 214 193 213 207 148 116 129 141 141 145 142 141 143 143 144 140 136 133 128 128 122 127 127 117 110 114 120 121 118 111 109 115 124 121 122 133 128 96 76 82 115 224 253 232 182 180 192 176 183